Tracking 19247 objects as of 24-Sep-2018
HD Live streaming from Space Station
objects crossing your sky now

SL-16 DEB

Track SL-16 DEB now!
10-day predictions


NORAD ID: 23409
Int'l Code: 1994-077F
Perigee: 843.6 km
Apogee: 974.1 km
Inclination: 70.9 °
Period: 103.0 minutes
Semi major axis: 7279 km
RCS: 0.6495 m2 (medium)
Launch date: November 24, 1994
Source: Commonwealth of Independent States (former USSR) (CIS)
Launch site: TYURATAM MISSILE AND SPACE COMPLEX (TTMTR)

Note: This is SATELLITE DEBRIS
aabbcc
Your satellite tracking list
Your tracking list is empty




NASA's NSSDC Master Catalog

Two Line Element Set (TLE):
1 23409U 94077F   18266.84191814 +.00000007 +00000-0 +35944-4 0  9990
2 23409 070.8816 056.2473 0089655 088.6011 272.5370 13.97725267215771
Source of the keplerian elements: AFSPC